2018 Avenue of the Giants Marathon

Humboldt Redwoods State Park
2018-05-06
  • Logo
Starts on: 2018-05-06
Where: Humboldt Redwoods State Park
Categories: Marathon Half Marathon 10k Run/Walk
Female marathon
name bib rank time pace hometown
Sally Keating 161 1 02:57:49 06:48 San Diego, CA
Frances Zander 463 2 03:11:13 07:18 Boise, ID
Kristine Klotzbach 464 3 03:11:15 07:18 Walnut Creek, CA
Tami Beall 206 4 03:13:39 07:24 Arcata, CA
Romi Voorhies 474 5 02:15:39 21:50 Marrero, LA
Karen Kidwell 10 5 03:18:58 07:36 Eureka, CA
Annie Ciernia 213 6 03:18:60 07:36 Davis, CA
Jessica Anies 266 7 03:19:42 07:38 Boulder, CO
Megan Smyth 512 8 03:25:31 07:51 Dallas, TX
Rachel Cardoza 301 9 03:30:50 08:03 Eureka, CA
Audrey Haynes 267 10 03:35:39 08:14 Oakland, CA
Beth Rathburn 131 11 03:38:52 08:22 Medford, OR
Kay Evans 416 12 03:39:03 08:22 Chocowinity, NC
Alicia Mengel 501 13 03:39:40 08:24 Mckinleyville, CA
Elizabeth Vaage 228 14 03:42:04 08:29 Davis, CA
Erin Orndorf 256 15 03:44:10 08:34 Oregon City, OR
Amanda Reynolds 71 16 03:44:55 08:36 Arcata, CA
Jodi Sacco 243 17 03:47:01 08:40 Dallas, TX
Rose Asquith 216 18 03:47:51 08:42 Grass Valley, CA
Katie Collins 109 19 03:51:46 08:51 Tempe, AZ
Alejandra Silva 328 20 03:52:03 08:52 Salinas, CA
Amanda Lee 472 21 03:52:12 08:52 Arcata, CA
Heather Ryan 162 22 03:52:48 08:54 Reno, NV
Jamie Henson 38 23 03:53:39 08:56 Sacramento, CA
Hayley Swanson 155 24 03:55:03 08:59 Livermore, CA
Claire Lucas 516 25 03:55:16 08:59 Calgary, Canada, AB
Ebru Kisnak 73 26 03:56:23 09:02 Twentynine Palms, CA
Rachel Vogel 494 27 03:56:34 09:02 Golden, CO
Jennifer Letulle 210 28 03:56:53 09:03 Orinda, CA
Frances Mesa 31 29 03:57:54 09:05 Vacaville, CA
Mary Pella-Donnelly 225 30 03:59:03 09:08 Chico, CA
Monika Stevens 253 31 03:59:40 09:09 Oakland, CA
Sara Dugan 154 32 03:59:53 09:10 Castro Valley, CA
Hannah Harter 336 33 04:02:30 09:16 Davis, CA
Julia Raffaini 422 34 04:03:24 09:18 Paradise, CA
Gibson Trinca 77 35 04:04:41 09:21 Paradise, CA
Caroline Carson 302 36 04:04:46 09:21 Eureka, CA
Laura Boehme 82 37 04:04:48 09:21 Bend, OR
Julia Vasinda 249 38 04:05:01 09:22 Portland, OR
Andie Wright 47 39 04:05:53 09:24 Portland, OR
Rachel Carl 27 40 04:05:59 09:24 Fairfield, CA
Cara Storm 205 41 04:06:01 09:24 San Francisco, CA
Patricia Petnicki 28 42 04:06:05 09:24 Fairfield, CA
Tania Benitez 323 43 04:06:51 09:26 Vacaville, CA
Carolina Swartz 304 44 04:07:23 09:27 Fairfield, CA
Suzanne Luke 489 45 04:07:31 09:27 Tyler, TX
Kate Larrabure 151 46 04:08:10 09:29 Petaluma, CA
Susan Bertilacchi-Green 126 47 04:09:02 09:31 Pleasant Hill, CA
Karen Meadows 509 48 04:09:13 09:31 Rosemary Beach, FL
Kristina Scheuneman 508 49 04:10:51 09:35 Jacksonville, OR
Kimberly Bodutch 40 50 04:12:07 09:38 Vacaville, CA
Whitney Olson 505 51 04:12:19 09:38 Saint Paul, MN
Suzanne Cox 53 52 04:12:30 09:39 Zephyrhills, FL
Constance Levie 134 53 04:14:01 09:42 Henderson, NV
Molly Krantz 521 54 04:16:43 09:48 Beaverton, OR
Amelia Cain 158 55 04:17:37 09:50 Chapel Hill, NC
Kimberly Ward 480 56 04:19:23 09:54 Los Angeles, CA
Jennifer Go 337 57 04:19:25 09:55 Fremont, CA
Kenda Grover 279 58 04:20:14 09:56 Fayetteville, AR
Amy Stoyles 510 59 04:21:31 09:59 Freeport, FL
Chanel Ruiz-Bricco 497 60 04:22:37 10:02 Santa Rosa, CA
Ruth Cruz 23 61 04:22:39 10:02 Stockton, CA
Fay Mac Donnell 6 62 04:22:41 10:02 Portland, OR
Karen Narus 264 63 04:22:60 10:03 Boise, ID
Yavanna Reynolds 156 64 04:23:35 10:04 Davenport, CA
Stephanie Casteel 458 65 04:23:58 10:05 Redding, CA
Thalia Hernandez-Duran 21 66 04:24:22 10:06 Stanford, CA
Kimberly Phillips 329 67 04:25:41 10:09 Solana Beach, CA
Joyce Holz 107 68 04:25:57 10:09 Houston, TX
Brooke Weeber 50 69 04:26:54 10:12 Portland, OR
Shannon Brayshaw 145 70 04:27:16 10:12 Vista, CA
Gabriella Swartz 306 71 04:27:31 10:13 Fairfield, CA
Angelica Steinmeier 459 72 04:28:04 10:14 Orinda, CA
Joy Toyias 221 73 04:28:14 10:15 Fair Oaks, CA
Jennifer Gifford 473 74 04:28:17 10:15 Redding, CA
Susie Derenzis 327 75 04:28:24 10:15 Solana Beach, CA
Elena Cassell 148 76 04:29:54 10:19 Hercules, CA
Amanda Orosco 415 77 04:30:43 10:20 Las Vegas, NV
Melissa Huff 30 78 04:32:28 10:24 Vacaville, CA
Paula Kaiser 92 79 04:33:55 10:28 Fort Collins, CO
Jeanette Sauter 136 80 04:34:02 10:28 Bakersfield, CA
Debbie Nicholson 76 81 04:35:25 10:31 Windsor, CA
Sabrina Skoog 79 82 04:36:10 10:33 Ashland, OR
Chyon-Hwa Yeh 236 83 04:37:37 10:36 Cincinnati, OH
Stephanie Smith 433 84 04:37:54 10:37 Healdsburg, CA
Elizabeth Seung 78 85 04:38:08 10:37 Los Angeles, CA
Emily Fairfax 63 86 04:38:52 10:39 Boulder, CO
Kelsey Wright 17 87 04:38:52 10:39 Mesilla, NM
Angelica Aubrey 345 88 04:43:43 10:50 Eureka, CA
Kimberly Sanders 260 89 04:43:57 10:51 Petaluma, CA
Sadie Smith 132 90 04:45:59 10:55 Garden Valley, CA
Cheryl Ricketts 153 91 04:46:41 10:57 Anderson, CA
Virginia Unkefer 33 92 04:47:16 10:58 Pentwater, MI
Dominique Chevalier 523 93 04:49:02 11:02 Healdsburg, CA
Kristina Bazargan-Forward 22 94 04:51:37 11:08 San Diego, CA
Natasha Munson 254 95 04:51:46 11:09 South Lake Tahoe, CA
Afton Uriarte 261 96 04:53:32 11:13 Berkeley, CA
Jill Glover 315 97 04:55:24 11:17 Petaluma, CA
Karen Seguin 411 98 04:56:39 11:20 West Olive, MI
Linda Wilson 326 99 04:57:36 11:22 Placerville, CA
Emily Schaefer 309 100 04:58:38 11:24 Santa Rosa, CA

Next Page